STARLINK-35055

Last updated on Tue Oct 07 2025 00:02:05 GMT+0000 (Coordinated Universal Time)

1 65524U 25200E 25279.50003471 .00140380 00000+0 25447-2 0 9995 2 65524 97.6035 346.2052 0001499 101.6004 348.3354 15.49101074 5817
UTC large
Height (km)
Speed (km/s)
/
Latitude / Longitude
Inclination (degrees)
Orbital Period (minutes)
Azimuth
Elevation
Range (km)
Doppler Factor

Next 0 passes for location: London (51.5072 / 0.1276)

Sorry there are no passes over London.
STARLINK-35055